This is the latest recevied weather packets stored in our database for station/object iz1wiy-2. If no packets are shown the sender has not sent any weather packets the latest 1 day(s).
| Time | Temp. | Humidity | Pressure | Rain* | Wind** | Luminosity | Snow |
|---|---|---|---|---|---|---|---|
| 1778022303 | 17.78° C | 80% | 1010.8 hPa | 0 mm | 0 m/s | - | - |
| 1778022003 | 17.78° C | 80% | 1010.9 hPa | 0 mm | 0 m/s | - | - |
| 1778021703 | 17.22° C | 80% | 1011 hPa | 0 mm | 0 m/s | - | - |
| 1778021403 | 17.22° C | 80% | 1010.9 hPa | 0 mm | 0 m/s | - | - |
| 1778021103 | 17.22° C | 80% | 1011.2 hPa | 0 mm | 0.45 m/s, 346° | - | - |
| 1778020803 | 17.22° C | 81% | 1011.3 hPa | 0 mm | 0.45 m/s, 344° | - | - |
| 1778020503 | 17.22° C | 81% | 1011.4 hPa | 0 mm | 0 m/s | - | - |
| 1778020203 | 17.22° C | 81% | 1011.3 hPa | 0 mm | 0 m/s | - | - |
| 1778019903 | 17.22° C | 81% | 1011.5 hPa | 0 mm | 0 m/s | - | - |
| 1778019603 | 17.22° C | 81% | 1011.5 hPa | 0 mm | 0 m/s | - | - |
| 1778019303 | 17.22° C | 81% | 1011.6 hPa | 0 mm | 0 m/s | - | - |
| 1778019003 | 16.67° C | 81% | 1011.5 hPa | 0 mm | 0 m/s | - | - |
| 1778018703 | 16.67° C | 81% | 1011.5 hPa | 0 mm | 0.45 m/s, 343° | - | - |
| 1778018409 | 16.67° C | 81% | 1011.4 hPa | 0 mm | 0.45 m/s, 347° | - | - |
| 1778018103 | 16.67° C | 81% | 1011.4 hPa | 0 mm | 0.45 m/s, 349° | - | - |
| 1778017803 | 16.67° C | 82% | 1011.5 hPa | 0 mm | 0.45 m/s, 8° | - | - |
| 1778017503 | 16.67° C | 82% | 1011.6 hPa | 0 mm | 0.89 m/s, 19° | - | - |
| 1778017203 | 16.67° C | 82% | 1011.5 hPa | 0 mm | 1.34 m/s, 19° | - | - |
| 1778016903 | 16.67° C | 82% | 1011.8 hPa | 0 mm | 1.34 m/s, 22° | - | - |
| 1778016603 | 16.67° C | 82% | 1011.9 hPa | 0 mm | 1.34 m/s, 30° | - | - |
| 1778016303 | 16.67° C | 82% | 1011.9 hPa | 0 mm | 1.34 m/s, 33° | - | - |
| 1778016003 | 16.67° C | 82% | 1011.9 hPa | 0 mm | 0.89 m/s, 26° | - | - |
| 1778015703 | 16.67° C | 82% | 1011.9 hPa | 0 mm | 0.45 m/s, 18° | - | - |
| 1778015403 | 16.67° C | 82% | 1011.9 hPa | 0 mm | 0.89 m/s, 20° | - | - |
| 1778015103 | 16.67° C | 82% | 1011.9 hPa | 0 mm | 0.89 m/s, 9° | - | - |
* Rain latest hour (hover to see other rain measurements)
** Current wind speed in m/s (hover to see current wind gust speed)